Regional Weather Roundup
Issued by NWS

Home | Current Version | Previous Version | Text Only | Print | Product List | Glossary On
Versions: 1 2 3 4 5 6 7 8 9 10 11 12 13 14 15 16 17 18 19 20 21 22 23 24 25 26 27 28 29 30 31 32 33 34 35 36 37 38 39 40 41 42 43 44 45 46 47 48 49 50
000
ASUS43 KDMX 212207
RWRIA

WEATHER ROUNDUP FOR IOWA
NATIONAL WEATHER SERVICE DES MOINES IA
400 PM CST SUN DEC 21 2014

NOTE: "FAIR" INDICATES FEW OR NO CLOUDS BELOW 12,000 FEET WITH NO
SIGNIFICANT WEATHER AND/OR OBSTRUCTIONS TO VISIBILITY.

* - THESE STATIONS ARE NOT NWS STATIONS...THUS NOT UNDER NWS
QUALITY CONTROL.  THEY ALSO DO NOT REPORT WEATHER SUCH
AS PRECIPITATION OR FOG.

IAZ001>003-012>014-020>022-031>034-043>046-212300-
   NORTHWEST IOWA

CITY           SKY/WX    TMP DP  RH WIND       PRES   REMARKS
CARROLL *      CLOUDY    39  37  93 S15G25    29.74F WCI  31
CHEROKEE *     CLOUDY    39  39 100 S15G21    29.70R FOG     WCI  31
DENISON *      CLOUDY    39  39 100 S18G28    29.71R FOG     WCI  30
LE MARS *      CLOUDY    41  39  93 S20       29.65F FOG
ORANGE CITY *  CLOUDY    39  37  93 S20       29.64F FOG     WCI  30
SHELDON *      CLOUDY    39  39 100 S22G32    29.63F FOG     WCI  29
SIOUX CITY     CLOUDY    42  38  85 S18       29.68F
SPENCER        CLOUDY    39  36  89 S15       29.69F FOG     WCI  31
STORM LAKE *   FOG       37  37 100 S17       29.71R VSB 1   WCI  28
$$

IAZ055>058-069>071-079>083-090>094-212300-
   SOUTHWEST IOWA

CITY           SKY/WX    TMP DP  RH WIND       PRES   REMARKS
ATLANTIC *     CLOUDY    41  39  93 S14G21    29.76F FOG
AUDUBON *      CLEAR     39  34  81 S21       29.76F WCI  29
CLARINDA *     CLOUDY    41  41 100 S10       29.81F FOG
COUNCIL BLFS * CLOUDY    41  41 100 S13       29.72F
CRESTON *      CLOUDY    39  39 100 S17       29.80S WCI  30
HARLAN  *      CLOUDY    39  39 100 S20G28    29.77F FOG     WCI  30
LAMONI         CLOUDY    41  39  93 S8        29.83S
RED OAK *      CLOUDY    41  41 100 S15       29.78S FOG
SHENANDOAH *   CLOUDY    41  41 100 S13G18    29.78F FOG
$$

IAZ047>049-059>061-072>074-084-212300-
   CENTRAL IOWA

CITY           SKY/WX    TMP DP  RH WIND       PRES   REMARKS
AMES           CLOUDY    40  35  83 S13       29.81S WCI  32
ANKENY *       CLOUDY    41  37  87 S10       29.82S
CHARITON *     CLOUDY    41  39  93 S14       29.84S
DES MOINES     CLOUDY    42  37  82 S15       29.82F
GRINNELL*      DRIZZLE   39  37  93 S12       29.86R WCI  32
KNOXVILLE *    CLOUDY    41  37  87 S13G21    29.84S
MARSHALLTOWN   CLOUDY    39  38  96 S14       29.82S FOG     WCI  31
PELLA *        CLOUDY    41  39  93 S12       29.87S
PERRY *        CLOUDY    41  37  87 S14       29.79S
$$

IAZ004>006-015-016-023>025-035-036-212300-
   NORTH CENTRAL IOWA

CITY           SKY/WX    TMP DP  RH WIND       PRES   REMARKS
ALGONA *       CLOUDY    37  37 100 S23G30    29.73R FOG     WCI  26
CLARION *      CLOUDY    37  37 100 S14       29.77F WCI  29
ESTHERVILLE    CLOUDY    37  36  96 S20G29    29.69S FOG     WCI  27
FORT DODGE *   CLOUDY    39  36  87 S13G22    29.76F WCI  32
MASON CITY     MIX PCPN  37  35  92 S18       29.78F FOG     WCI  27
FOREST CITY *  CLOUDY    37  36  93 S16G25    29.76R FOG     WCI  28
IOWA FALLS *   CLOUDY    39  36  87 S21       29.81S WCI  29
$$

IAZ007>011-017>019-026>030-037>042-050>054-066-212300-
   NORTHEAST IOWA

CITY           SKY/WX    TMP DP  RH WIND       PRES   REMARKS
CEDAR RAPIDS   CLOUDY    39  36  89 S14G26    29.88F WCI  31
CHARLES CITY * CLOUDY    37  37 100 S14       29.83R WCI  29
CLINTON *      CLOUDY    37  32  81 SE16      29.99F WCI  28
DECORAH *      CLOUDY    37  36  93 S12       29.84F FOG     WCI  30
DUBUQUE        CLOUDY    36  34  92 S16       29.92S FOG     WCI  26
MONTICELLO *   CLOUDY    37  37 100 SE14      29.91S WCI  29
OELWEIN *      CLOUDY    37  36  93 S17       29.86S FOG     WCI  28
WATERLOO       CLOUDY    38  37  97 S14       29.84S FOG     WCI  30
$$

IAZ064-065-067-068-078-212300-
   EAST CENTRAL IOWA

CITY           SKY/WX    TMP DP  RH WIND       PRES   REMARKS
DAVENPORT      CLOUDY    38  32  79 SE17      29.96F WCI  28
IOWA CITY      CLOUDY    41  36  82 SE15      29.93S
MT. PLEASANT * CLOUDY    41  36  81 SE13      29.93F
MUSCATINE *    CLOUDY    43  36  75 SE12      29.95S
QUAD CITIES    CLOUDY    39  32  76 SE13      29.96F WCI  31
$$

IAZ062-063-075>077-085>089-095>099-212300-
   SOUTHEAST IOWA

CITY           SKY/WX    TMP DP  RH WIND       PRES   REMARKS
BURLINGTON     CLOUDY    42  35  76 S8        29.95F
FAIRFIELD *    CLOUDY    43  37  81 SE14      29.90F
FORT MADISON * CLOUDY    45  39  81 SE10      29.95S
KEOKUK *       CLOUDY    45  36  70 S8G21     29.94S
OSKALOOSA *    CLOUDY    41  37  87 S10       29.88S
CENTERVILLE *  CLOUDY    41  41 100 S9        29.88F
OTTUMWA        CLOUDY    42  37  82 S10       29.88S
WASHINGTON *   CLOUDY    41  41 100 SE14      29.91F
$$

ABBREVIATIONS USED IN REMARKS
   TC - TEMPERATURES IN CELSIUS
  WCI - WIND CHILL INDEX
   HX - HEAT INDEX
  VSB - VISIBILITY
$$



USA.gov is the U.S. government's official web portal to all federal, state and local government web resources and services.